EW1065 Weather Reports


Display with metric or nautical units.
time (UTC)temp
F
wind
direction
speed
MPH
gust
MPH
rain 1hr
in
rain 24hr
in
rain mn
in
humidity
%
barometer
mb
20260508065018 40 0.0 0.0 0.00 0.00 0.00 96 1015.7
20260508064018 40 0.0 0.0 0.00 0.00 0.00 96 1015.8
20260508063020 40 0.0 0.0 0.00 0.00 0.00 95 1015.9
20260508062040 40 0.0 0.0 0.00 0.00 0.00 95 1016.0
20260508061018 40 0.0 0.0 0.00 0.00 0.00 95 1016.2
20260508060018 41 0.0 0.0 0.00 0.00 0.00 95 1016.2
20260508055020 41 0.0 0.0 0.00 0.00 0.00 95 1016.2
20260508054020 41 0.0 0.0 0.00 0.00 0.00 95 1016.2
20260508053020 41 0.0 0.0 0.00 0.00 0.00 95 1016.4
20260508052024 41 0.0 0.0 0.00 0.00 0.00 94 1016.4
20260508051020 41 0.0 0.0 0.00 0.00 0.00 94 1016.3
20260508050020 42 0.0 0.0 0.00 0.00 0.00 94 1016.3
20260508045038 42 0.0 0.0 0.00 0.00 0.00 94 1016.1
20260508044020 42 0.0 0.0 0.00 0.00 0.00 94 1016.2
20260508043023 42 0.0 0.0 0.00 0.00 0.00 94 1016.3
20260508042018 42 0.0 0.0 0.00 0.00 0.00 94 1016.2
20260508041018 42 0.0 0.0 0.00 0.00 0.00 93 1016.2
20260508040020 42 0.0 0.0 0.00 0.00 0.00 93 1016.2
20260508035020 43 0.0 0.0 0.00 0.00 0.00 93 1016.1
20260508034040 43 0.0 0.0 0.00 0.00 0.00 92 1016.2
20260508033018 43 0.0 0.0 0.00 0.00 0.00 92 1016.2
20260508032018 43 0.0 0.0 0.00 0.00 0.00 91 1016.2
20260508031020 43 0.0 0.0 0.00 0.00 0.00 90 1016.2
20260508030020 43 0.0 0.0 0.00 0.00 0.00 89 1016.1
20260508025018 44 0.0 0.0 0.00 0.00 0.00 88 1016.1
20260508024019 44 0.0 0.0 0.00 0.00 0.00 87 1016.0
20260508023018 44 0.0 0.0 0.00 0.00 0.00 86 1015.8
20260508022020 45 0.0 0.0 0.00 0.00 0.00 86 1015.8
20260508021020 45 0.0 0.0 0.00 0.00 0.00 84 1015.6
20260508020018 46 0.0 0.0 0.00 0.00 0.00 83 1015.6
20260508015038 46 0.0 0.0 0.00 0.00 0.00 84 1015.4
20260508014020 47 0.0 0.0 0.00 0.00 0.00 82 1015.3
20260508013018 48 0.0 0.0 0.00 0.00 0.00 81 1015.2
20260508012018 48 0.0 0.0 0.00 0.00 0.00 79 1015.1
20260508011018 49 0.0 0.0 0.00 0.00 0.00 79 1014.9
20260508010018 50 0.0 0.0 0.00 0.00 0.00 76 1015.0
20260508005018 51 0.0 0.0 0.00 0.00 0.00 74 1014.8
20260508004040 53 0.0 0.0 0.00 0.00 0.00 71 1014.8
20260508003021 54 0.0 0.0 0.00 0.00 0.00 68 1014.8
20260508002020 55 0.0 0.0 0.00 0.00 0.00 64 1014.7
20260508001038 57 0.0 0.0 0.00 0.00 0.00 59 1014.6
20260508000018 58 0.0 0.0 0.00 0.00 0.00 49 1014.6
20260507235020 59 0.0 0.0 0.00 0.00 0.00 45 1014.6
20260507234018 59 0.0 1.0 0.00 0.00 0.00 43 1014.6
20260507233020 60 0.0 1.0 0.00 0.00 0.00 41 1014.6
20260507232018 61 0.0 1.0 0.00 0.00 0.00 40 1014.7
20260507231018 61 0.0 1.0 0.00 0.00 0.00 42 1014.7
20260507230018 62 338 1.0 2.0 0.00 0.00 0.00 38 1014.8
20260507225040 62 338 1.0 3.0 0.00 0.00 0.00 41 1014.8
20260507224020 64 338 1.0 4.0 0.00 0.00 0.00 37 1014.9
20260507223020 64 338 1.0 4.0 0.00 0.00 0.00 39 1015.0
20260507222018 64 0.0 1.0 0.00 0.00 0.00 39 1014.9
20260507221039 63 0.0 1.0 0.00 0.00 0.00 37 1014.9
20260507220018 63 338 2.0 6.0 0.00 0.00 0.00 37 1014.9
20260507215018 64 23 1.0 6.0 0.00 0.00 0.00 40 1014.9
20260507214020 65 0.0 3.0 0.00 0.00 0.00 39 1014.9
20260507213022 63 225 1.0 5.0 0.00 0.00 0.00 38 1014.8
20260507212020 63 338 2.0 5.0 0.00 0.00 0.00 37 1014.9
20260507211018 63 0.0 3.0 0.00 0.00 0.00 40 1014.8
20260507210039 63 293 1.0 5.0 0.00 0.00 0.00 42 1014.8
20260507205020 63 338 2.0 5.0 0.00 0.00 0.00 42 1014.8
20260507204020 63 338 2.0 8.0 0.00 0.00 0.00 38 1014.9
20260507203018 64 338 1.0 3.0 0.00 0.00 0.00 42 1015.0
20260507202018 63 0.0 5.0 0.00 0.00 0.00 39 1014.9
20260507201020 62 338 1.0 4.0 0.00 0.00 0.00 40 1015.1
20260507200018 63 293 1.0 4.0 0.00 0.00 0.00 42 1015.1
20260507195039 62 338 1.0 8.0 0.00 0.00 0.00 39 1015.2
20260507194018 62 315 1.0 4.0 0.00 0.00 0.00 44 1015.2
20260507193020 63 338 1.0 3.0 0.00 0.00 0.00 44 1015.3
20260507192018 63 270 1.0 3.0 0.00 0.00 0.00 45 1015.3
20260507191018 62 315 1.0 5.0 0.00 0.00 0.00 48 1015.4
20260507190018 61 315 1.0 4.0 0.00 0.00 0.00 48 1015.3
20260507185020 61 315 2.0 7.0 0.00 0.00 0.00 41 1015.4
20260507184039 61 338 2.0 5.0 0.00 0.00 0.00 44 1015.5
20260507183018 61 315 2.0 5.0 0.00 0.00 0.00 46 1015.5
20260507182020 61 45 1.0 4.0 0.00 0.00 0.00 40 1015.4
20260507181020 61 90 1.0 4.0 0.00 0.00 0.00 45 1015.5
20260507180018 61 338 1.0 5.0 0.00 0.00 0.00 41 1015.6
20260507175038 61 338 1.0 9.0 0.00 0.00 0.00 43 1015.8
20260507174020 60 315 1.0 5.0 0.00 0.00 0.00 46 1016.0
20260507173038 60 0 1.0 4.0 0.00 0.00 0.00 47 1015.9
20260507172018 59 338 3.0 8.0 0.00 0.00 0.00 47 1016.2
20260507171019 59 315 1.0 4.0 0.00 0.00 0.00 44 1016.3
20260507170020 59 315 1.0 5.0 0.00 0.00 0.00 46 1016.4
20260507165018 58 338 2.0 8.0 0.00 0.00 0.00 46 1016.5
20260507164022 58 338 2.0 6.0 0.00 0.00 0.00 43 1016.6
20260507163018 58 338 2.0 5.0 0.00 0.00 0.00 41 1016.8
20260507162019 59 315 2.0 7.0 0.00 0.00 0.00 47 1016.8
20260507161038 58 0.0 3.0 0.00 0.00 0.00 45 1016.8
20260507160038 58 0 2.0 5.0 0.00 0.00 0.00 44 1016.7
20260507155018 58 270 2.0 5.0 0.00 0.00 0.00 50 1016.8
20260507154018 57 338 2.0 5.0 0.00 0.00 0.00 50 1016.8
20260507153020 57 338 2.0 7.0 0.00 0.00 0.00 48 1016.7
20260507152019 57 338 1.0 4.0 0.00 0.00 0.00 53 1016.6
20260507151039 56 338 1.0 6.0 0.00 0.00 0.00 50 1016.6
20260507150018 56 338 1.0 3.0 0.00 0.00 0.00 53 1016.5
20260507145018 55 338 2.0 7.0 0.00 0.00 0.00 55 1016.6
20260507144020 54 338 1.0 4.0 0.00 0.00 0.00 61 1016.7
20260507143039 53 338 2.0 6.0 0.00 0.00 0.00 54 1016.7
20260507142018 53 338 1.0 4.0 0.00 0.00 0.00 57 1016.6
20260507141018 52 338 2.0 5.0 0.00 0.00 0.00 54 1016.5
20260507140039 52 0 1.0 4.0 0.00 0.00 0.00 60 1016.6
20260507135018 51 338 2.0 5.0 0.00 0.00 0.00 55 1016.6
20260507134018 51 338 1.0 5.0 0.00 0.00 0.00 61 1016.5
20260507133018 50 315 1.0 4.0 0.00 0.00 0.00 62 1016.5
20260507132018 49 338 1.0 5.0 0.00 0.00 0.00 67 1016.5
20260507131018 48 338 1.0 4.0 0.00 0.00 0.00 71 1016.4
20260507130018 47 0.0 4.0 0.00 0.00 0.00 77 1016.5
20260507125019 46 0.0 3.0 0.00 0.00 0.00 84 1016.4
20260507124018 45 0.0 1.0 0.00 0.00 0.00 91 1016.4
20260507123020 45 0.0 0.0 0.00 0.00 0.00 95 1016.4
20260507122018 43 0.0 3.0 0.00 0.00 0.00 98 1016.4
20260507121019 43 0.0 0.0 0.00 0.00 0.00 98 1016.5
20260507120019 42 0.0 0.0 0.00 0.00 0.00 98 1016.4
20260507115018 42 0.0 0.0 0.00 0.00 0.00 98 1016.6
20260507114018 42 0.0 0.0 0.00 0.00 0.00 98 1016.5
20260507113018 41 0.0 0.0 0.00 0.00 0.00 98 1016.5
20260507112019 41 0.0 0.0 0.00 0.00 0.00 98 1016.4
20260507111018 41 0.0 0.0 0.00 0.00 0.00 98 1016.3
20260507110038 41 0.0 0.0 0.00 0.00 0.00 98 1016.1
20260507105038 41 0.0 0.0 0.00 0.00 0.00 98 1016.0
20260507104019 41 0.0 0.0 0.00 0.00 0.00 98 1015.9
20260507103018 42 0.0 0.0 0.00 0.00 0.00 98 1015.8
20260507102018 42 0.0 0.0 0.00 0.00 0.00 98 1015.8
20260507101018 42 0.0 0.0 0.00 0.00 0.00 98 1015.8
20260507100039 42 0.0 0.0 0.00 0.00 0.00 98 1015.8
20260507095018 42 0.0 0.0 0.00 0.00 0.00 98 1015.8
20260507094018 42 0.0 0.0 0.00 0.00 0.00 98 1015.8
20260507093019 42 0.0 0.0 0.00 0.00 0.00 98 1015.9
20260507092018 42 0.0 0.0 0.00 0.00 0.00 97 1015.8
20260507091020 42 0.0 0.0 0.00 0.00 0.00 97 1015.7
20260507090018 42 0.0 0.0 0.00 0.00 0.00 97 1015.5
20260507085018 43 0.0 0.0 0.00 0.00 0.00 97 1015.5
20260507084018 43 0.0 0.0 0.00 0.00 0.00 97 1015.3
20260507083019 43 0.0 0.0 0.00 0.00 0.00 97 1015.4
20260507082038 44 0.0 0.0 0.00 0.00 0.00 97 1015.3
20260507081018 44 0.0 0.0 0.00 0.00 0.00 97 1015.3
20260507080018 44 0.0 0.0 0.00 0.00 0.00 97 1015.2
20260507075018 44 0.0 0.0 0.00 0.00 0.00 97 1015.2
20260507074018 44 0.0 0.0 0.00 0.01 0.00 97 1015.3
20260507073019 44 0.0 0.0 0.00 0.02 0.00 97 1015.3
20260507072018 44 0.0 0.0 0.00 0.03 0.00 97 1015.3
20260507071038 44 0.0 0.0 0.00 0.04 0.00 97 1015.3
20260507070018 44 0.0 0.0 0.00 0.05 0.00 97 1015.3